Orbital Elements at Epoch 2458339.5 (2018-Aug-09.0) TDB
Reference: JPL 2 (heliocentric ecliptic J2000)
Element | Value | Uncertainty (1-sigma) | Units |
e | .5234225775892306 | 0.0017867 | |
a | .7311614002758356 | 0.00056613 | au |
q | .3484550155097066 | 0.0015761 | au |
i | 12.5824429745398 | 0.082623 | deg |
node | 319.8759383913105 | 0.014886 | deg |
peri | 170.4272120683905 | 0.018663 | deg |
M | 193.6739847003342 | 0.035062 | deg |
tp | 2458445.005716979020 (2018-Nov-22.50571698) | 0.14244 | TDB |
period | 228.3590936992977 0.63 | 0.26522 0.0007261 | d yr |
n | 1.576464480429435 | 0.001831 | deg/d |
Q | 1.113867785041965 | 0.00086245 | au |
|
| | Orbit Determination Parameters
Additional Information
|